RH
51 50 50 50 53 56 56 63 63 57 57 55 60 60 66 73 71 75 76 77 80 81 85 84 78 80 85 81 75 75 73 74 80 86 84 82 85 84 82 77 73 71 72 73 73 75 74 69 67 68 68 62 60 60 59 59 57 54 53 52 52 50 50 51 51 50 50 49 48 47 47 47 45 44 44 44 45 45 46 46 47 48 48 47 45 43 42 45 50 52 53 56 57 56 56 56 57
48 48 47 46 47 54 55 59 57 47 46 50 58 62 69 74 70 74 79 82 76 70 77 75 68 69 75 75 73 77 78 73 75 77 74 76 78 74 75 73 69 68 67 69 72 73 68 63 60 63 66 64 63 62 59 56 54 52 53 53 52 50 49 51 52 53 52 50 48 47 46 46 46 46 46 46 46 47 47 48 48 48 47 45 44 43 45 49 52 54 56 58 59 58 57 58 58
46 46 45 46 46 52 56 56 49 38 40 43 52 65 71 70 69 76 80 77 66 61 66 67 65 63 76 79 73 78 76 69 65 66 70 75 76 70 69 67 64 66 66 67 68 67 64 62 60 61 64 67 69 69 65 63 56 52 56 55 54 55 52 50 51 52 52 50 48 47 47 46 47 47 47 47 48 48 48 48 47 46 44 44 44 45 49 54 55 58 59 60 60 58 58 58 57
43 44 44 48 53 56 55 51 41 34 39 41 47 63 69 71 73 74 71 64 59 62 65 67 67 65 83 82 75 80 70 63 61 64 74 76 73 69 66 66 65 63 64 66 66 63 59 60 62 61 63 66 69 69 68 67 61 56 60 60 59 60 56 54 52 51 49 48 48 47 47 47 47 47 47 47 48 48 47 46 45 44 43 44 46 49 53 56 58 60 60 60 59 58 59 57 55
43 43 43 48 56 60 54 43 36 33 42 41 44 60 68 75 74 64 61 58 59 68 69 72 69 63 73 71 77 86 66 57 57 65 76 74 70 67 67 69 65 59 61 67 70 65 61 64 63 62 63 63 65 66 66 65 62 58 59 60 60 58 55 57 56 53 49 46 46 46 47 47 47 47 48 47 47 46 45 45 44 44 45 47 50 53 56 58 60 59 59 59 58 58 59 57 54
42 42 38 42 46 53 52 39 33 34 47 48 45 58 67 75 72 59 57 58 60 64 65 73 71 62 64 60 70 78 63 56 54 62 71 68 69 68 69 68 61 56 57 67 73 65 65 70 64 63 65 64 64 62 63 63 60 58 57 56 51 49 51 55 56 55 53 49 46 45 45 46 46 46 47 46 45 45 45 46 45 46 47 50 53 56 58 60 60 58 58 58 57 56 56 55 55
40 42 38 44 44 44 43 33 34 36 47 53 50 60 68 71 69 61 59 60 60 59 61 67 68 69 66 59 63 68 63 56 51 57 61 61 63 66 73 68 58 56 56 63 67 59 61 66 60 60 61 58 59 59 60 58 58 57 52 49 47 48 50 49 51 51 51 51 49 47 46 45 45 45 45 45 45 45 46 46 47 48 50 53 56 58 60 60 59 58 57 55 54 52 53 54 56
38 40 36 48 49 39 34 32 38 40 47 56 56 62 65 65 69 72 71 70 67 64 63 59 67 73 61 58 64 64 64 57 50 54 55 57 57 61 71 69 60 58 59 58 55 51 55 58 55 53 50 49 53 58 58 56 60 58 49 49 52 51 49 47 46 45 45 46 47 47 46 46 45 44 45 45 45 45 46 47 49 51 54 57 58 59 58 58 57 57 56 54 54 54 56 58 59
39 40 39 47 45 33 31 33 38 44 50 57 55 50 51 58 74 83 78 77 71 67 66 60 71 73 55 57 62 59 64 57 50 54 54 55 54 56 61 62 60 57 55 51 45 46 49 49 51 51 45 47 52 54 54 55 57 57 51 50 51 48 45 44 42 41 40 40 41 42 42 43 43 44 44 45 45 46 47 49 52 54 57 58 58 57 57 57 56 55 52 52 56 58 60 60 59
40 39 42 45 39 31 30 32 36 44 49 56 54 42 44 53 71 84 80 78 72 70 65 58 70 71 57 56 56 56 60 54 52 56 55 53 51 52 52 52 54 56 54 49 45 47 48 43 46 51 49 52 58 55 52 51 51 52 49 46 46 44 42 42 41 40 39 38 38 39 40 41 42 43 44 45 46 48 50 53 55 57 57 57 57 56 57 55 53 53 52 53 56 58 60 58 58
45 42 42 42 35 31 31 32 34 43 49 56 49 37 43 49 62 77 80 76 68 64 57 57 66 61 56 55 55 56 54 54 56 56 54 53 52 51 51 50 50 55 57 54 51 48 48 48 49 51 51 53 54 52 47 44 45 46 44 43 44 44 44 42 41 41 40 40 39 40 41 42 43 45 46 48 50 52 54 56 57 58 58 58 58 57 56 54 54 55 55 56 57 57 57 57 57
55 57 48 41 32 30 34 34 34 41 48 55 43 30 37 43 58 69 72 70 62 56 52 63 67 53 54 54 54 57 54 55 58 57 54 54 55 54 53 52 51 54 58 59 57 49 47 52 54 51 50 51 50 48 44 42 42 43 43 43 44 44 45 43 42 42 42 42 43 44 44 46 48 49 51 52 54 56 57 57 58 58 59 59 58 56 54 53 56 58 58 59 59 57 56 57 57
55 61 47 39 34 32 37 36 38 41 43 51 41 28 27 37 59 67 66 62 61 64 56 58 58 55 57 51 51 54 54 56 57 57 55 54 56 56 55 54 54 55 59 62 60 52 48 51 54 52 50 50 50 46 43 44 44 44 45 44 45 46 45 45 45 46 46 47 47 48 49 50 51 52 54 54 56 57 57 59 59 59 59 58 58 56 54 55 58 59 59 59 59 58 58 57 56
53 59 46 39 36 33 37 38 40 39 37 47 40 29 26 32 47 54 62 63 63 67 58 51 51 57 55 46 48 49 53 56 56 57 56 57 56 56 56 56 57 57 59 62 60 54 51 52 51 49 47 45 46 45 40 41 42 42 44 44 45 45 46 47 47 48 49 50 51 52 53 53 53 54 54 55 56 57 58 59 58 59 59 60 59 57 55 57 58 56 54 55 55 56 56 54 53
52 58 47 39 36 33 36 38 40 36 38 47 39 32 30 28 29 37 61 69 56 50 49 49 51 61 57 47 46 44 50 53 53 57 57 59 58 59 60 58 60 60 58 58 59 57 55 53 49 49 49 46 45 44 39 38 40 41 43 44 45 46 47 49 48 49 51 53 55 55 55 54 54 54 54 55 55 56 56 57 58 59 60 58 55 53 52 53 54 53 52 51 51 51 52 53 53
46 52 47 38 35 33 35 38 40 36 40 49 38 34 35 27 24 31 48 52 40 37 44 45 48 60 59 52 48 41 46 48 50 55 57 60 60 62 62 60 61 61 58 54 56 57 57 55 52 54 54 50 46 43 40 39 42 43 45 46 47 49 51 52 51 50 51 53 53 52 51 52 52 51 51 52 52 53 54 57 60 58 56 53 50 50 50 51 51 52 52 52 52 50 52 53 51
42 49 46 37 33 32 34 37 39 37 42 48 38 37 41 31 26 26 29 32 33 35 38 38 42 49 50 51 49 42 43 44 47 52 57 60 60 61 60 60 60 57 56 53 53 55 59 57 54 55 54 51 45 43 42 41 42 43 45 46 47 49 51 52 51 50 49 50 50 48 48 50 54 53 51 51 52 53 53 57 59 57 54 50 50 52 53 54 52 52 53 54 55 54 55 56 51
43 50 45 35 32 32 33 36 38 38 43 47 38 39 46 39 30 24 22 27 32 34 34 35 39 41 43 49 50 44 41 40 42 47 52 55 55 56 56 57 57 54 53 53 52 54 60 59 55 54 52 49 46 45 43 42 42 43 45 46 46 47 49 50 49 49 49 49 49 47 49 54 58 56 52 54 55 54 54 57 59 58 56 52 54 56 57 57 53 52 51 53 56 59 60 61 58
42 49 43 35 32 33 34 36 38 38 42 46 40 39 47 42 30 24 27 29 27 32 34 32 34 36 40 46 50 47 42 38 37 41 45 47 48 51 52 51 52 52 50 51 50 53 59 59 55 52 49 47 48 48 48 48 44 44 46 45 46 46 46 49 48 47 48 51 50 50 54 55 55 52 50 54 55 54 55 56 57 59 58 57 58 58 58 56 51 50 50 51 53 57 59 60 61
40 45 39 36 33 34 36 36 38 39 42 47 41 38 47 41 27 24 31 30 25 30 31 28 29 31 37 43 48 48 43 39 35 36 38 40 42 47 50 47 49 51 49 49 49 50 56 57 54 51 47 45 50 51 52 57 50 48 54 51 50 50 47 49 48 46 47 51 53 56 58 55 54 51 50 54 55 56 56 56 56 58 59 59 60 58 57 54 51 50 50 51 50 52 53 53 55
39 44 36 34 34 35 35 36 38 39 44 48 41 38 46 41 29 25 28 29 26 31 31 28 28 28 34 38 42 46 44 39 34 33 35 36 39 47 50 48 50 51 49 51 50 50 52 53 51 49 46 44 50 52 54 59 54 54 60 58 56 57 55 53 52 51 50 52 54 57 57 56 56 55 53 54 55 57 56 55 55 56 57 58 58 56 55 53 54 55 53 53 53 54 53 52 51
33 39 36 36 37 36 35 37 37 37 41 45 39 39 46 39 31 26 30 39 38 39 35 27 27 26 29 31 34 40 39 35 32 29 30 32 37 45 49 51 53 52 52 53 53 51 50 52 53 50 46 45 50 54 55 55 54 57 60 58 58 60 61 59 58 58 55 54 56 58 57 55 56 57 57 57 57 57 56 56 56 56 56 55 54 53 54 54 57 59 58 57 56 56 55 54 53
27 32 34 36 38 37 35 36 34 31 34 39 37 40 45 39 34 27 30 42 39 37 33 22 22 24 26 28 27 29 29 28 27 25 26 27 31 36 39 45 50 50 51 53 56 54 51 52 52 52 49 45 50 53 54 56 56 59 59 58 58 60 61 59 59 60 57 53 56 58 58 58 58 58 59 60 59 59 58 58 57 57 56 53 52 52 52 54 60 62 61 59 57 57 57 59 63
24 28 32 33 36 36 34 33 32 26 27 38 40 39 40 41 44 34 27 33 25 23 25 19 20 22 24 26 25 25 25 25 25 25 26 27 29 31 32 35 38 39 41 44 50 52 52 51 47 51 49 43 48 50 53 59 58 60 61 58 57 59 59 59 61 61 59 56 58 59 59 61 61 60 60 61 60 59 58 57 57 56 55 54 54 56 55 57 65 66 63 63 63 63 63 65 63
24 29 31 32 33 33 30 30 31 26 28 39 39 37 40 44 51 44 33 30 24 20 20 19 19 19 21 24 25 26 26 26 26 25 26 27 27 27 28 29 30 32 33 35 41 44 47 50 49 49 47 44 48 51 55 59 58 60 63 61 61 61 59 62 64 61 60 60 62 62 61 62 62 62 61 58 57 55 54 54 56 56 56 56 56 59 59 63 69 68 67 67 66 63 60 55 45
25 29 30 31 28 28 27 26 28 24 27 34 34 39 44 43 48 51 46 38 33 26 20 20 19 18 20 21 23 24 25 26 24 24 24 24 23 24 25 27 29 30 32 33 36 41 42 47 52 51 49 47 48 52 55 57 57 59 63 63 63 62 60 62 64 63 63 64 64 64 63 64 63 61 59 56 54 52 51 51 53 54 56 56 58 61 59 63 67 65 64 60 55 50 45 39 33
25 28 29 30 27 26 24 22 25 26 26 28 34 44 46 42 43 51 51 44 43 36 24 20 19 18 19 19 21 23 24 25 25 25 23 23 22 23 24 25 27 28 30 32 33 39 41 44 48 48 50 49 49 52 54 56 57 58 60 61 60 60 61 62 63 64 65 65 65 65 64 63 61 58 56 53 51 51 51 51 51 53 54 54 57 61 60 62 62 59 56 49 45 40 36 38 43
24 27 29 30 29 25 21 22 26 28 27 28 40 51 48 40 40 51 51 43 46 44 32 24 20 19 19 20 21 21 23 25 25 25 23 23 23 24 25 26 28 27 28 31 32 35 38 42 44 45 50 49 50 55 55 55 58 58 58 58 59 59 61 63 64 64 64 65 64 63 62 59 56 54 52 49 48 50 51 50 51 54 56 57 58 63 66 67 65 62 56 48 45 40 40 48 52
22 27 29 30 30 24 21 26 26 26 28 31 46 57 50 39 39 50 50 43 45 47 44 36 27 21 18 19 20 21 22 23 22 23 24 26 27 27 28 30 31 30 30 31 33 34 38 43 45 45 49 48 49 55 57 56 57 57 55 54 57 57 57 60 60 60 60 60 59 58 55 52 51 50 50 51 52 52 50 49 54 59 61 63 67 69 72 72 69 66 56 48 49 49 50 47 35
21 27 29 28 29 26 24 26 24 28 31 32 43 49 43 39 45 48 44 43 44 43 47 48 41 31 22 18 18 19 20 19 20 23 25 27 29 30 32 32 31 33 34 33 34 36 38 41 45 46 47 47 48 51 54 56 56 54 52 51 52 52 53 54 54 55 54 52 53 52 49 48 50 51 54 58 59 56 52 52 60 68 69 71 73 73 76 73 64 58 51 48 50 48 39 25 11
21 28 30 26 25 25 26 24 23 31 32 30 37 37 31 36 46 42 38 44 44 40 43 48 50 44 31 21 17 17 17 16 19 24 25 27 29 31 34 32 31 33 34 34 36 38 39 39 42 44 45 45 46 46 49 53 55 54 52 49 48 48 48 49 50 49 49 49 50 49 47 47 49 52 56 60 59 55 51 56 67 77 78 78 77 75 76 71 59 52 49 44 36 25 13 6 4
24 29 28 24 22 26 31 24 23 34 31 28 38 38 28 34 44 38 35 43 45 44 43 43 47 49 43 32 21 17 16 15 18 23 24 25 27 28 30 30 29 31 32 34 36 36 38 39 39 43 45 45 44 45 46 48 50 50 50 48 47 47 47 47 47 46 48 48 47 48 47 45 46 47 53 58 56 49 49 57 70 78 81 81 80 78 75 68 60 51 39 25 15 7 3 4 6
26 28 24 21 21 27 35 28 26 35 31 27 38 38 29 34 43 37 35 42 44 47 47 43 43 44 47 43 30 21 16 16 17 19 21 22 22 22 23 25 26 29 32 35 35 35 37 38 39 42 45 45 44 44 45 45 46 46 46 46 46 48 48 45 42 44 45 44 45 46 45 43 43 49 61 64 52 40 46 61 70 74 78 79 79 77 70 59 47 32 17 7 4 3 4 5 5
25 27 23 21 21 22 30 32 31 34 32 30 36 37 31 39 46 35 35 41 42 47 48 46 44 39 42 46 39 27 18 16 16 16 18 19 19 19 19 20 22 26 31 33 34 36 37 37 38 40 43 45 45 45 45 46 45 45 45 44 43 45 45 43 42 44 43 42 46 46 42 41 48 61 66 55 39 31 37 53 65 70 73 74 76 71 56 39 23 9 5 3 3 4 4 4 5
23 25 22 22 23 21 24 33 35 32 30 33 41 41 35 43 51 38 34 39 39 44 47 47 46 38 37 43 42 32 22 18 17 16 17 18 18 18 18 18 20 22 25 30 32 34 34 33 36 38 40 43 45 46 46 46 44 44 44 42 40 40 42 43 43 44 44 46 49 49 45 45 53 60 53 43 41 38 34 45 60 69 70 65 59 46 26 16 9 3 3 3 2 4 3 4 5
22 24 23 21 21 21 22 29 35 33 31 35 42 44 38 41 50 44 34 36 37 39 44 46 46 38 32 37 41 35 26 20 20 20 18 18 18 18 18 18 19 19 21 25 28 29 30 30 33 37 37 40 46 48 46 43 42 42 43 42 39 38 40 44 44 45 47 50 53 53 51 54 57 50 47 55 64 57 41 43 49 49 46 36 24 14 6 5 4 2 3 2 3 3 3 5 5
21 22 23 21 19 20 21 26 36 37 33 35 37 39 40 38 47 51 38 34 38 37 39 42 41 36 27 28 35 34 30 24 22 23 21 20 19 18 18 18 18 19 20 22 23 26 29 30 32 34 36 39 44 46 43 41 41 42 42 40 37 39 42 43 45 46 46 49 53 51 48 54 52 43 50 68 79 68 38 22 20 15 12 8 4 3 3 3 2 2 3 3 3 3 4 5 6
20 20 20 20 19 19 22 30 42 42 34 33 36 37 40 38 45 54 41 30 38 39 37 39 38 36 30 25 27 29 31 29 23 23 23 22 21 19 19 18 19 21 21 23 24 27 30 31 31 32 37 38 39 40 40 40 42 42 41 39 38 45 50 48 47 47 46 50 53 44 35 35 31 31 45 54 57 47 19 3 4 3 2 2 2 2 2 2 2 3 2 3 3 4 4 5 7
19 20 19 19 19 19 26 37 45 46 37 31 36 38 39 40 45 53 44 31 35 39 38 40 39 39 36 28 24 24 27 27 23 21 22 23 22 21 20 20 21 23 25 26 28 29 30 31 31 32 36 36 37 40 39 41 44 42 41 42 44 49 52 49 47 47 48 52 51 39 27 23 17 16 22 21 16 12 4 3 4 3 3 3 2 2 2 2 3 2 3 4 4 4 5 5 7
19 19 19 19 19 20 28 37 42 45 40 33 33 37 40 42 43 49 45 32 32 37 38 39 40 38 37 33 27 25 24 23 22 21 21 22 22 22 20 20 22 24 25 27 28 28 28 29 31 33 35 36 38 39 39 42 42 39 40 45 50 50 46 43 42 46 51 54 54 43 28 18 11 6 6 5 6 5 5 6 4 4 4 3 4 3 3 4 3 4 4 4 5 6 7 8 9
18 19 19 18 18 21 25 30 38 42 42 39 36 37 39 39 38 42 44 37 31 33 35 36 37 37 37 36 29 24 24 23 23 23 23 23 22 22 21 21 23 24 23 24 24 25 26 28 31 35 36 37 37 37 39 39 34 37 43 45 45 41 34 33 39 50 52 45 44 35 18 10 8 10 12 12 12 11 8 8 6 6 5 4 4 4 4 5 4 5 5 6 8 8 8 9 9
17 18 20 18 18 22 24 26 34 37 38 41 39 35 33 32 33 36 42 43 33 27 29 30 32 33 34 36 30 23 23 23 24 25 25 24 23 22 23 22 24 24 22 22 23 25 27 29 32 34 35 36 35 34 35 33 30 35 36 30 28 24 19 18 24 37 35 22 21 18 11 14 18 19 21 20 18 17 14 12 10 8 7 6 5 5 4 5 5 5 6 7 8 9 10 10 10
16 18 19 19 18 21 24 27 31 32 31 34 36 33 28 26 27 30 36 43 34 24 25 26 26 29 30 32 33 29 25 21 21 23 23 23 24 24 24 24 25 25 24 25 26 28 30 32 32 32 31 32 33 30 27 24 26 28 22 16 17 14 11 9 8 13 14 10 13 18 21 25 27 28 28 28 28 26 23 19 15 12 10 8 7 6 6 5 6 6 7 7 9 10 10 10 10
15 17 18 19 19 19 22 25 27 26 24 28 34 33 28 23 24 29 35 41 37 25 22 24 23 25 26 28 31 32 30 25 21 21 20 20 21 23 25 26 27 27 27 28 29 30 31 32 31 29 27 27 27 25 20 17 17 18 15 13 13 10 8 8 6 7 10 14 19 26 32 32 33 36 37 37 36 35 34 31 25 18 12 10 10 8 7 7 7 7 8 9 10 10 10 11 12
14 16 18 19 18 17 18 20 22 22 21 25 32 32 28 25 26 31 37 42 40 27 19 22 22 22 24 25 27 30 32 31 25 21 20 18 18 20 23 26 28 30 30 29 29 30 30 30 28 25 22 21 20 18 15 14 13 14 14 12 10 9 9 9 11 13 15 22 28 32 35 35 35 37 38 37 36 37 38 39 37 28 18 12 11 10 9 8 8 8 9 10 11 12 12 13 13
14 16 18 18 18 17 17 18 20 20 20 23 28 29 28 25 23 30 40 42 36 26 21 21 21 21 23 23 24 27 30 32 30 25 21 19 17 17 21 25 29 32 31 29 29 29 28 26 23 20 17 16 15 13 12 12 12 13 13 13 12 11 11 12 16 18 19 27 33 34 34 32 33 36 37 35 34 36 39 41 41 38 29 18 12 12 11 10 10 9 10 10 11 11 13 14 14
13 16 18 17 17 17 17 18 19 19 22 25 24 25 29 26 19 24 36 35 27 25 27 25 21 19 20 21 22 23 27 29 31 30 25 20 16 15 20 25 28 31 30 28 27 26 23 20 18 16 14 13 12 11 11 11 12 13 14 14 14 14 14 15 16 16 20 29 35 35 34 33 35 38 37 34 34 36 38 40 42 44 41 29 16 13 13 12 11 11 11 11 10 11 13 14 15
12 15 16 17 19 21 20 21 24 24 25 27 23 22 27 27 20 19 26 28 25 24 25 24 23 19 15 16 17 19 24 27 29 32 30 25 20 15 16 19 23 26 24 23 23 20 17 15 14 13 12 12 12 11 11 12 12 14 15 16 16 16 17 17 16 16 21 29 34 36 36 37 38 38 36 34 34 36 38 40 43 47 50 40 23 14 14 14 13 14 13 13 13 14 14 16 17
12 14 14 17 21 24 24 22 24 25 24 24 21 19 24 26 23 20 21 24 26 25 22 21 24 22 15 12 14 17 22 26 28 31 32 30 25 21 17 15 17 19 17 16 17 15 12 11 11 11 11 12 12 12 12 13 14 15 17 18 18 19 19 18 18 18 20 25 29 31 33 33 34 35 34 34 34 35 37 39 42 47 52 48 33 19 15 16 16 16 17 17 17 18 18 18 19
12 13 14 18 20 24 26 23 23 24 21 20 21 21 24 24 23 23 23 24 23 22 21 19 17 17 15 12 14 17 19 23 26 28 31 32 30 27 23 18 15 15 15 15 15 13 11 10 11 11 11 12 13 13 14 15 17 17 18 19 20 21 22 20 20 20 21 22 23 25 26 25 27 31 32 33 34 34 35 37 42 46 50 52 44 28 18 18 19 19 20 21 21 21 20 19 19
12 11 13 16 18 21 24 21 21 22 19 19 22 24 24 21 21 24 25 24 21 19 18 17 14 12 12 13 15 16 18 20 22 25 28 30 31 31 29 25 19 16 15 15 16 15 13 12 13 13 13 13 14 15 16 18 19 19 19 21 22 22 23 22 22 22 23 23 23 25 25 26 30 33 33 35 36 35 35 36 40 44 49 53 50 37 23 19 20 22 22 22 23 23 22 21 20
12 10 11 15 17 18 19 18 18 18 18 18 21 25 22 19 23 27 26 23 20 18 16 15 13 11 12 14 15 16 17 18 20 23 25 27 29 31 32 31 28 21 17 17 18 18 18 17 16 16 16 16 16 17 19 20 20 19 20 21 22 23 24 24 24 24 25 25 26 27 29 32 35 36 37 38 37 37 37 36 38 42 47 52 52 42 28 22 22 23 23 24 25 25 23 24 24
12 11 11 13 15 17 17 18 18 18 18 17 19 24 22 19 23 25 23 21 19 18 16 14 13 12 11 14 14 14 15 17 19 21 23 25 26 28 30 33 33 29 22 19 20 20 20 21 20 20 20 19 20 21 21 22 22 22 21 21 22 22 23 24 25 26 27 28 29 30 33 35 35 37 38 38 38 38 37 37 37 39 43 50 53 46 31 23 23 24 24 26 26 26 26 26 26
12 12 11 12 15 17 16 17 19 20 20 17 16 21 21 20 21 20 19 19 17 17 16 15 16 14 11 13 13 12 13 15 17 18 21 24 25 26 28 30 33 34 30 25 22 21 22 22 22 22 22 23 24 24 24 25 25 25 24 23 22 22 23 24 25 26 28 29 31 32 33 34 35 37 39 40 40 40 39 39 37 38 43 49 53 51 39 27 25 26 26 27 28 27 27 29 29
11 12 12 13 16 18 18 18 20 20 20 18 14 16 19 20 19 18 18 18 16 16 15 15 16 14 11 11 12 11 12 13 15 16 19 22 24 25 26 27 30 33 35 31 26 23 24 27 28 26 24 25 26 27 27 28 28 28 27 26 24 23 23 23 24 26 28 30 31 31 32 34 36 38 41 42 42 42 41 40 39 41 45 49 53 56 48 35 29 30 29 27 29 29 28 29 31
11 11 13 14 13 15 17 19 19 19 19 19 16 14 16 20 19 17 18 18 16 16 15 14 16 15 12 11 11 11 11 12 13 15 17 20 22 23 24 25 26 29 33 35 32 29 32 37 40 37 32 28 26 27 29 29 30 30 30 28 27 26 24 23 24 25 28 29 30 31 33 34 36 38 41 43 43 44 43 41 42 44 44 46 53 57 55 48 42 44 40 30 29 32 30 31 32
11 11 13 14 14 14 15 16 18 19 18 17 17 16 15 18 19 17 17 18 17 16 16 15 15 15 14 12 11 11 11 11 13 13 15 19 21 22 23 24 24 26 31 35 37 37 39 43 46 46 42 36 31 29 30 32 33 34 34 32 31 29 26 24 24 25 27 29 30 32 34 35 35 37 39 42 44 45 44 43 45 49 50 52 56 58 61 61 56 56 48 33 30 34 32 32 33
10 12 12 12 14 15 15 17 18 18 17 16 16 17 16 16 18 19 19 18 17 16 15 15 15 15 16 14 12 12 12 12 13 12 14 18 20 22 23 23 23 24 28 33 37 39 42 44 45 47 48 45 40 36 35 38 40 41 40 38 37 35 32 28 26 25 25 28 30 31 33 35 37 38 40 41 44 45 45 44 45 48 51 54 59 61 63 64 62 61 51 34 30 34 33 34 36
Wind_Speed
11 13 14 12 11 10 10 11 10 9 8 11 12 10 11 10 12 12 11 11 9 9 10 10 10 10 9 7 8 9 10 13 9 7 12 17 19 18 17 18 20 23 24 23 24 24 24 24 22 22 23 23 22 21 21 20 20 19 19 19 20 19 19 19 19 18 18 18 18 18 18 17 16 15 13 11 9 8 6 5 5 4 3 3 3 4 5 6 7 8 10 11 11 11 11 11 11
11 13 14 14 14 11 11 9 6 7 10 12 13 11 11 9 11 10 9 9 7 10 12 11 11 12 12 11 12 10 8 8 8 12 19 21 20 20 20 20 22 25 26 25 25 25 26 25 23 22 22 22 21 20 20 20 19 18 18 18 19 19 18 18 18 18 17 17 17 17 17 16 15 14 12 10 8 7 6 5 4 3 3 3 3 4 5 6 7 8 9 10 10 10 10 10 9
12 12 13 14 14 13 12 9 6 7 10 12 12 10 9 9 10 10 8 9 9 11 11 12 13 14 14 11 11 9 8 10 14 19 22 22 21 22 22 23 23 25 26 25 25 25 25 25 23 22 22 21 20 19 19 19 18 17 17 17 17 18 17 17 17 16 16 16 16 16 16 15 14 13 11 10 8 7 6 5 4 3 3 3 4 5 6 6 7 8 9 9 9 9 9 9 8
11 12 11 11 12 13 11 8 7 8 10 11 11 8 8 9 10 10 10 10 11 11 11 11 11 13 12 10 9 8 13 16 18 21 22 22 22 24 24 23 23 24 26 25 24 24 24 24 22 22 22 21 20 19 18 18 17 17 17 15 16 16 16 16 15 15 15 15 15 15 15 14 13 12 11 10 8 7 6 5 5 4 4 4 4 5 5 5 6 7 7 7 7 8 8 8 8
10 11 11 11 10 10 9 8 9 11 10 10 10 8 7 8 9 10 11 12 12 11 10 10 8 10 10 10 10 12 17 19 20 21 22 23 24 25 25 24 23 23 26 26 24 23 23 23 22 21 22 21 20 20 19 18 16 16 16 15 15 14 15 15 15 15 14 15 15 15 14 14 13 12 11 10 8 7 7 6 5 4 4 4 4 4 4 5 6 6 6 6 7 7 7 8 7
9 10 11 12 11 9 8 9 12 13 11 9 9 8 7 8 8 10 11 12 12 11 10 9 7 8 8 10 15 17 19 19 20 20 22 25 25 26 25 24 24 24 25 25 24 23 22 21 21 21 21 21 20 19 19 18 17 16 15 14 14 14 14 15 14 14 14 14 14 14 14 13 13 12 11 9 8 7 6 6 5 4 4 4 4 4 4 4 5 5 6 6 7 7 7 7 6
8 9 9 11 12 12 10 11 12 12 11 9 8 7 7 8 8 9 9 10 11 10 10 9 8 7 9 13 17 19 19 19 20 20 23 25 25 26 25 24 24 24 24 23 23 23 23 22 21 21 20 20 19 19 18 17 16 16 14 13 14 13 14 14 14 14 14 13 13 13 13 13 12 11 11 9 8 7 6 5 4 3 3 3 3 3 4 4 5 5 6 7 7 7 7 6 6
9 9 10 9 7 8 10 12 12 10 10 9 8 7 7 8 9 9 8 8 8 9 8 9 9 8 12 16 16 17 18 19 20 21 23 24 25 25 25 25 25 24 23 22 22 22 22 21 20 19 18 18 18 17 16 15 14 14 13 12 13 13 13 13 13 13 13 13 13 12 12 12 11 11 10 9 8 7 5 4 2 2 3 2 2 3 4 5 6 7 7 7 7 7 6 5 6
7 7 10 9 4 6 10 11 11 10 9 9 8 8 8 8 10 9 8 7 6 8 8 9 9 8 13 16 17 18 17 19 21 21 23 24 25 25 25 25 24 24 23 22 21 21 21 20 19 18 17 17 16 16 15 13 13 13 12 12 12 12 12 12 12 12 12 12 12 11 11 11 10 10 9 8 7 6 4 3 2 2 2 2 3 4 5 6 7 7 7 7 7 7 6 5 5
6 7 8 6 4 8 10 10 10 10 9 8 8 9 9 8 10 9 8 7 6 7 8 10 10 9 14 16 18 19 18 20 22 22 23 24 24 25 25 24 23 23 22 22 21 20 20 19 18 17 17 16 15 15 14 13 13 13 13 12 12 12 12 12 12 12 12 11 11 11 10 10 9 9 8 7 6 5 4 3 2 1 1 1 3 4 5 6 7 7 7 7 7 7 6 6 5
5 7 8 6 5 9 10 10 10 9 8 9 8 11 10 8 9 9 9 8 7 7 8 10 11 13 15 16 18 19 20 21 21 22 23 23 23 24 24 23 22 21 21 21 20 20 20 18 18 17 16 16 15 14 13 14 13 13 13 13 13 13 12 12 12 12 12 11 11 11 10 10 9 8 7 6 5 5 4 3 2 1 1 2 3 5 5 6 6 7 7 7 7 6 6 6 6
4 4 6 6 5 9 9 8 9 8 7 7 8 11 11 10 8 7 8 9 9 7 8 10 11 14 14 15 17 19 20 21 21 22 23 23 23 22 21 21 20 19 19 19 19 19 19 18 17 17 16 16 15 15 14 14 14 14 13 13 13 13 13 12 12 12 11 11 11 10 9 9 8 8 7 6 6 5 4 2 1 1 2 3 4 5 5 6 6 7 6 6 6 6 5 5 6
4 2 4 5 4 7 7 7 8 6 6 5 7 10 11 12 9 7 7 8 9 6 6 10 12 15 14 15 17 19 20 21 21 21 22 23 23 22 21 20 19 18 18 18 18 18 18 18 17 16 16 15 15 15 15 15 14 14 14 13 13 13 13 12 12 11 11 11 10 9 9 8 8 7 7 6 5 4 3 2 1 1 2 2 3 4 5 5 6 7 7 7 6 6 6 6 6
2 1 2 4 3 4 5 6 6 6 6 5 5 8 10 12 11 9 7 6 7 6 7 10 12 14 13 15 17 19 20 20 21 20 21 21 21 21 19 19 18 17 16 17 17 18 17 17 16 15 15 15 14 14 14 15 15 14 14 13 12 12 11 11 10 10 10 9 9 8 8 7 7 6 5 4 3 2 2 1 1 1 1 2 3 4 5 5 6 6 7 7 6 6 6 6 6
0 1 2 3 3 3 3 4 5 6 6 5 4 5 7 9 10 11 9 7 5 6 8 11 13 11 10 13 15 18 20 20 21 20 20 20 20 19 18 18 17 17 16 16 17 17 16 16 16 15 15 15 14 14 14 14 14 13 13 12 11 10 10 9 9 8 8 8 7 7 6 6 6 5 4 3 3 2 1 1 1 1 1 3 4 5 5 6 6 6 6 7 6 6 6 5 6
2 1 2 3 3 2 2 3 3 5 5 4 5 5 5 6 8 10 10 9 6 6 9 11 12 10 10 14 14 15 18 20 21 20 20 20 19 18 17 17 16 16 15 15 16 16 16 15 16 15 14 15 14 14 13 13 13 12 11 10 10 9 8 8 7 7 7 7 6 6 5 5 5 4 3 3 2 2 1 1 0 1 2 3 4 5 6 7 7 7 7 6 6 6 5 5 6
4 1 2 2 2 2 2 3 3 5 4 4 6 6 4 3 5 8 9 10 9 8 9 11 10 10 11 14 14 15 17 19 20 20 20 19 19 18 17 16 16 16 16 16 15 16 15 15 15 15 14 14 14 13 13 12 12 11 10 9 8 8 7 7 6 6 6 6 6 5 5 5 4 3 3 3 3 2 1 0 0 1 2 3 4 6 7 8 9 8 8 7 6 6 5 6 7
6 3 4 3 2 3 2 2 2 5 4 2 5 6 4 2 3 5 7 8 9 9 8 9 10 10 12 13 14 15 16 18 19 19 20 19 18 17 17 17 16 16 16 16 15 15 15 14 14 14 14 13 13 12 12 11 11 10 9 8 8 7 7 7 6 6 6 6 5 4 4 4 4 3 3 3 2 2 1 1 1 1 2 3 4 6 8 9 10 9 9 8 7 6 6 8 9
7 5 5 4 1 2 2 1 0 2 2 0 4 5 4 4 3 3 5 6 7 9 8 9 11 11 13 15 16 16 16 16 17 18 18 19 18 17 16 16 16 16 16 16 16 15 15 14 13 13 13 12 12 11 11 10 10 9 9 8 8 8 7 7 6 6 6 5 5 5 4 4 3 3 3 3 2 2 2 2 2 3 3 4 6 7 9 10 10 10 10 9 8 7 8 9 11
8 9 7 5 2 2 2 0 1 1 1 1 3 4 3 4 4 5 5 5 5 7 7 7 10 11 13 16 17 17 16 15 15 17 17 17 17 16 15 15 15 15 15 15 15 15 14 14 13 13 12 12 12 11 11 10 9 9 9 8 8 8 7 7 6 6 6 5 5 5 5 4 3 3 3 3 2 2 3 3 4 5 5 6 7 9 10 10 10 10 10 10 10 10 10 11 12
7 11 9 4 2 3 3 1 3 3 2 3 2 3 1 3 5 6 6 5 5 6 6 5 7 10 13 15 17 17 16 14 15 16 16 16 16 16 15 15 14 14 14 14 13 13 13 13 13 12 12 12 12 11 11 10 10 9 9 8 8 8 8 7 7 6 6 6 6 5 5 4 3 3 3 3 3 4 4 5 6 6 7 8 9 10 10 9 10 10 10 10 11 11 12 12 13
9 12 10 8 6 4 4 3 5 4 4 5 3 2 1 3 6 7 8 7 4 6 6 7 9 9 10 13 16 16 15 14 14 15 16 16 16 16 16 15 15 15 15 14 13 13 12 13 13 12 12 12 12 11 11 10 10 10 9 9 8 8 8 7 7 7 7 7 6 6 5 5 4 3 4 4 5 5 6 6 7 7 8 9 9 10 10 10 10 11 11 11 12 12 13 14 14
11 12 11 11 10 8 7 6 7 8 6 6 4 1 3 3 6 7 10 9 7 9 9 9 13 12 11 11 14 16 15 15 15 15 16 16 16 16 16 16 16 15 15 15 14 13 13 13 12 12 12 12 11 11 11 10 10 9 9 9 8 8 8 7 7 7 7 7 6 5 5 5 5 5 5 5 6 7 7 7 8 8 9 9 9 10 10 11 11 12 12 13 13 14 14 14 15
13 11 11 11 12 11 10 9 11 12 9 7 6 4 3 2 4 4 9 10 8 10 11 11 13 14 14 12 12 14 14 15 15 15 15 15 15 15 15 15 15 15 15 15 14 14 13 12 12 12 12 11 11 10 10 10 9 9 9 8 8 8 7 7 7 7 7 6 6 5 5 6 6 6 7 7 7 8 8 8 9 9 9 9 9 10 11 11 11 12 13 13 13 14 14 14 15
15 14 11 11 12 12 12 12 15 15 10 10 10 7 3 4 5 3 6 10 8 8 10 11 12 14 14 14 13 14 15 16 16 16 16 16 16 16 16 15 16 15 15 14 14 14 13 13 12 12 11 11 11 11 10 10 9 9 9 8 8 8 7 7 7 7 7 7 6 6 7 7 7 7 8 8 8 8 8 8 9 10 9 9 9 10 10 10 11 12 13 13 13 14 15 16 17
14 13 11 12 11 12 13 15 18 15 10 12 11 9 8 7 6 5 7 9 8 9 8 9 11 13 14 15 15 15 16 17 18 18 18 18 18 17 17 16 16 16 15 15 14 14 14 14 13 13 12 12 11 11 11 10 9 9 9 9 8 7 7 7 7 7 7 7 8 8 8 8 8 8 9 9 8 8 8 8 9 10 10 10 9 10 10 10 11 12 13 13 14 15 17 18 18
12 11 12 12 11 13 15 16 16 12 12 12 10 11 13 11 7 6 9 9 7 9 9 8 9 11 13 15 16 16 16 17 17 18 18 18 18 18 18 18 17 17 16 16 15 15 14 14 13 13 13 12 12 12 11 11 10 9 9 9 8 8 8 8 8 8 8 9 9 9 9 9 9 9 9 9 9 9 9 9 10 10 11 10 9 10 11 10 11 12 13 14 16 18 19 19 18
15 14 13 13 13 14 16 15 11 12 14 12 10 13 15 15 10 9 11 9 8 8 10 9 9 10 12 14 16 16 17 16 16 17 17 17 17 17 17 17 17 17 16 16 16 16 15 14 14 14 13 13 12 12 11 11 10 10 10 9 9 9 9 9 9 9 9 9 10 10 10 10 9 9 9 8 9 9 10 11 11 11 11 11 10 11 11 11 11 12 14 16 18 19 18 17 15
15 16 13 13 14 15 14 10 10 13 15 13 13 15 17 19 13 12 13 10 9 9 10 11 10 10 10 12 14 15 16 16 16 16 16 15 15 15 15 16 17 16 16 17 17 17 16 16 15 14 14 13 12 12 11 10 10 10 10 9 10 10 10 10 10 10 10 10 10 10 10 10 9 9 8 8 9 10 11 12 13 12 12 11 11 11 12 12 13 15 17 18 18 17 16 16 16
16 15 14 12 12 12 10 10 12 13 15 16 15 12 13 16 16 16 14 12 12 11 12 12 11 12 11 12 12 14 15 14 14 15 15 16 16 15 16 16 16 17 17 17 17 17 17 16 15 15 14 13 13 12 12 11 11 10 10 10 11 11 10 10 10 10 10 10 10 11 10 10 9 9 9 10 11 12 13 13 13 13 12 12 13 13 13 13 14 16 18 17 16 16 17 18 18
15 13 14 13 11 10 11 12 12 14 16 17 14 10 7 8 14 17 13 14 13 11 12 13 13 13 13 13 13 14 14 13 13 15 16 17 17 16 17 17 17 17 18 17 16 16 16 15 15 14 14 14 13 13 12 12 11 11 10 11 11 11 11 11 11 10 10 10 10 11 10 10 10 11 11 11 12 13 13 13 13 14 14 14 15 15 15 16 17 17 17 17 17 18 18 18 17
15 14 16 15 13 10 12 15 14 15 17 17 15 13 8 6 12 14 12 15 15 13 13 13 14 14 15 15 15 16 15 14 14 16 17 17 17 18 17 17 17 17 17 16 16 16 16 15 15 14 14 14 13 13 13 12 12 11 11 11 12 11 11 11 11 11 11 10 10 10 11 11 11 11 12 12 13 14 14 14 14 15 15 16 16 17 17 18 18 17 18 18 18 19 18 16 15
16 18 17 15 15 12 12 17 16 16 18 18 17 15 9 8 13 11 10 15 16 16 16 14 15 15 16 17 17 18 18 17 17 16 16 17 18 18 18 18 18 18 18 17 17 17 16 16 15 15 15 14 14 13 13 13 12 12 12 12 12 11 11 11 12 12 11 11 10 11 11 12 12 12 12 12 14 15 15 15 16 16 17 17 18 18 18 17 17 18 19 19 18 18 16 15 15
18 19 18 15 16 14 13 16 18 19 20 20 19 17 10 9 14 12 10 14 16 18 18 16 16 16 18 19 18 20 21 20 19 18 17 17 18 19 20 19 19 19 19 19 18 18 17 17 16 16 16 15 15 14 14 13 13 12 12 12 12 11 11 12 12 12 11 11 11 12 13 13 13 12 13 13 14 15 16 17 18 18 18 19 18 18 18 18 18 19 19 18 17 16 15 15 14
19 19 19 16 15 16 15 15 18 22 22 19 20 22 17 12 15 17 13 13 15 18 20 18 16 17 19 21 21 21 22 22 21 21 20 19 19 20 21 21 20 20 20 19 19 19 19 18 17 17 17 16 16 15 15 14 14 13 12 12 12 11 12 12 12 11 11 12 12 13 13 13 13 12 13 13 14 15 16 17 18 18 19 18 18 18 19 19 19 18 17 16 15 15 15 15 14
19 18 19 18 15 17 17 15 17 22 22 20 20 22 21 16 17 22 19 15 13 15 19 19 18 17 19 21 23 23 23 23 22 23 22 21 21 21 21 22 21 21 20 20 20 19 19 18 18 18 18 18 17 17 16 15 14 12 12 11 11 11 11 12 11 11 12 12 14 14 14 14 13 14 14 14 14 15 17 18 18 19 19 19 19 19 19 18 18 16 15 14 14 14 15 15 14
18 18 18 19 17 17 17 16 17 21 20 19 21 20 20 18 16 21 22 20 18 15 16 18 17 16 17 20 23 24 24 23 23 24 25 24 23 23 23 23 22 21 21 20 20 19 18 18 18 18 18 18 18 17 16 14 13 12 11 11 10 10 11 12 12 12 12 13 15 15 15 15 14 15 15 15 14 15 18 18 18 18 17 17 17 17 17 17 16 15 14 14 14 14 15 14 14
18 19 19 19 20 17 15 16 18 20 19 18 19 20 20 19 17 21 24 22 22 20 16 15 15 14 15 17 20 23 24 24 25 25 26 26 25 25 25 24 23 21 21 20 20 19 19 18 18 18 19 19 18 16 15 14 13 13 12 11 11 11 12 12 12 13 13 14 15 14 14 15 14 14 14 14 14 14 16 15 15 15 14 14 14 14 15 16 15 14 14 14 14 14 14 14 14
21 21 19 19 19 16 14 16 17 18 19 16 16 20 21 20 19 22 28 26 25 25 22 19 17 16 15 14 16 19 23 25 26 25 25 26 27 27 26 26 24 22 21 21 21 20 20 19 18 18 19 19 18 17 16 15 15 15 14 13 12 12 13 14 13 13 13 13 14 13 13 13 13 12 11 10 11 11 11 11 10 11 11 11 11 12 13 14 14 13 13 13 13 13 14 13 13
24 23 21 20 19 16 16 18 17 18 20 17 15 18 20 20 20 24 29 30 27 27 26 25 24 20 16 13 13 16 21 24 25 25 24 25 27 28 27 26 24 23 23 22 22 21 20 19 18 19 19 18 18 18 17 16 17 16 15 14 14 14 14 14 13 12 12 13 12 12 11 10 8 7 5 4 4 4 5 5 6 7 8 8 9 10 12 12 13 13 12 12 12 12 12 12 11
26 25 24 21 18 18 18 18 16 16 18 17 15 17 20 22 22 25 27 28 28 28 27 26 27 25 20 16 15 17 20 23 24 25 25 25 26 27 26 25 24 25 24 23 22 21 20 19 18 19 19 19 19 19 18 19 18 17 16 15 15 14 13 12 12 11 12 11 11 9 7 6 5 4 3 3 2 1 2 3 4 5 5 7 8 9 10 11 11 11 11 11 11 11 11 10 11
27 27 27 22 17 17 17 17 16 15 17 18 16 14 18 21 21 24 24 24 26 24 25 26 25 26 24 21 19 18 19 22 24 26 26 25 25 24 25 25 25 25 23 22 21 21 20 19 19 20 20 20 20 19 20 19 18 17 16 15 14 13 13 12 12 12 11 10 9 8 8 7 7 6 5 5 4 5 5 5 6 6 6 7 7 8 9 10 11 11 11 11 10 10 11 10 10
27 27 27 24 18 15 16 17 18 18 17 16 17 15 16 17 18 21 21 22 24 22 22 23 23 24 25 24 23 20 19 20 22 25 26 25 24 24 25 25 25 24 22 21 22 22 21 20 20 20 20 20 20 20 20 19 18 17 16 15 15 14 14 13 13 12 11 11 11 10 10 9 8 6 5 5 5 6 7 8 9 9 9 9 9 9 10 11 11 11 11 11 10 10 10 10 10
27 23 24 25 21 17 16 18 20 21 18 14 16 18 19 18 16 16 17 20 21 22 21 21 22 22 23 23 24 23 21 20 20 22 24 24 24 24 24 24 23 21 20 22 23 22 21 21 21 21 21 21 21 21 20 19 18 17 17 16 16 15 14 14 14 13 13 13 12 11 10 8 7 6 5 5 6 7 8 9 11 12 12 11 11 11 11 11 12 12 11 11 10 10 10 10 10
27 19 20 24 23 19 18 19 19 21 19 17 18 19 18 19 17 16 17 20 20 23 22 20 20 20 20 21 23 24 24 22 20 20 21 22 22 22 22 22 21 20 21 23 23 22 22 22 22 22 22 21 22 22 20 19 19 19 18 17 17 16 16 16 15 15 14 13 12 11 9 8 6 4 3 4 5 6 7 9 11 12 13 12 12 11 11 11 11 11 11 11 10 9 9 9 9
25 17 17 21 22 21 20 19 20 22 21 19 19 19 15 16 18 18 17 20 22 22 21 19 19 19 20 21 20 22 24 25 23 20 20 21 21 21 21 21 22 22 23 23 23 23 23 23 23 23 22 22 22 22 20 20 20 20 19 18 17 17 17 17 16 15 14 13 12 10 9 7 5 3 1 1 3 5 7 9 10 11 12 13 13 11 10 10 10 9 9 9 9 8 9 9 9
22 16 16 18 19 20 20 19 21 20 18 19 22 21 16 15 18 18 18 22 22 18 18 19 20 19 19 20 20 20 22 25 25 23 20 20 20 21 22 23 24 24 25 25 25 25 25 25 24 23 22 22 22 21 20 20 21 21 19 18 18 18 18 17 16 15 15 14 12 11 9 8 6 4 2 2 3 5 7 8 9 10 12 13 12 11 10 9 8 8 8 7 7 8 8 9 9
23 18 19 19 16 17 17 18 19 14 12 20 25 23 20 18 20 18 17 21 20 15 16 18 20 20 18 18 18 18 19 22 26 26 23 21 21 22 24 25 25 26 27 27 27 27 27 26 25 24 23 23 22 21 21 21 21 20 19 19 19 19 18 17 16 16 16 15 14 12 11 9 7 6 5 4 4 5 6 8 9 10 11 12 12 10 9 8 8 7 7 7 7 7 8 8 8
26 22 24 22 15 13 13 14 14 13 14 20 23 23 22 23 25 22 17 19 19 17 18 18 18 19 20 16 13 13 15 17 23 27 27 24 23 23 24 25 25 26 26 27 27 27 27 26 24 24 23 23 22 21 21 21 21 20 20 20 19 18 18 16 16 17 17 17 16 15 12 10 10 9 8 6 6 6 7 8 9 10 11 11 11 10 9 8 8 7 7 7 7 7 8 8 8
29 28 28 24 15 10 11 11 11 13 18 21 20 18 21 23 24 24 23 25 23 21 20 19 18 19 20 17 13 12 12 13 18 24 27 27 25 24 24 24 25 25 24 25 26 26 26 25 24 23 23 23 22 21 21 21 20 20 20 20 19 18 17 17 18 19 19 18 17 16 14 13 12 11 10 9 8 9 9 10 10 11 11 12 12 11 10 9 8 8 8 7 7 8 8 8 8
31 32 30 28 24 17 11 11 12 13 17 22 21 17 19 22 20 20 22 24 23 20 19 19 20 19 19 17 16 15 13 14 16 19 24 27 26 26 24 24 25 24 23 24 25 24 24 23 22 23 23 23 22 22 21 20 20 21 21 21 20 19 18 18 20 20 20 19 18 17 16 14 13 12 12 11 11 11 11 11 11 11 12 12 12 12 11 9 8 8 8 8 7 8 9 9 8
29 32 31 32 31 26 18 16 20 21 17 19 21 19 21 23 19 19 19 19 21 22 21 20 20 19 18 18 19 19 17 16 16 17 20 22 24 25 26 25 25 24 25 26 25 24 21 20 21 22 22 23 22 22 21 20 20 21 21 21 20 20 20 21 22 21 20 20 19 18 17 15 15 14 14 14 14 14 14 13 12 13 13 13 13 12 11 10 9 9 9 8 8 9 9 9 9
23 31 36 33 29 29 27 21 20 20 16 17 20 19 21 23 22 24 26 24 24 22 20 18 17 18 19 20 21 22 21 20 18 17 18 19 21 23 25 27 26 25 26 27 26 24 21 20 20 20 21 22 22 21 21 21 21 21 21 22 22 22 22 22 23 22 22 22 21 20 19 17 17 17 17 17 18 17 16 14 14 14 14 14 15 14 12 11 10 10 10 10 10 10 10 9 9
22 28 34 30 23 26 30 21 15 15 12 15 23 22 21 22 21 22 25 25 25 24 21 19 18 20 19 20 22 23 23 23 20 18 17 18 20 21 23 27 27 26 26 27 26 23 21 21 20 21 21 21 20 20 21 21 21 22 22 23 24 24 24 24 25 24 24 24 23 22 21 20 20 20 21 21 21 19 18 17 18 18 15 14 15 16 14 12 11 11 11 12 12 11 10 10 10
29 24 25 28 24 22 25 20 14 14 11 12 22 25 23 24 22 17 17 18 19 20 19 16 16 19 18 19 22 23 23 23 21 20 20 21 22 22 23 26 27 27 26 26 25 24 23 22 21 21 21 20 20 20 21 21 22 22 23 24 25 25 26 26 26 26 27 27 25 24 24 24 24 24 24 24 23 22 21 21 20 17 13 14 17 19 17 14 11 11 13 15 14 13 12 12 12
34 26 22 28 30 25 26 25 20 17 12 10 18 21 22 26 26 21 18 16 15 15 16 16 16 18 19 19 21 23 25 25 23 21 21 23 25 25 26 27 27 27 26 25 26 26 25 22 21 21 21 22 23 22 22 22 22 23 24 25 26 26 27 28 28 28 28 28 28 28 29 28 27 28 27 27 27 26 24 23 21 19 19 22 24 23 21 18 14 13 17 18 17 14 13 13 13
34 32 27 27 27 25 26 28 29 25 16 11 12 15 20 24 24 27 26 22 19 17 17 19 19 18 20 20 20 23 25 25 24 23 22 25 27 27 27 28 28 27 26 26 26 26 25 24 23 22 21 22 23 23 23 23 23 24 25 25 25 25 27 28 29 29 29 31 32 32 31 31 31 31 31 32 31 29 28 28 28 29 29 27 28 27 24 21 19 19 21 21 19 16 15 14 14
32 33 33 31 27 25 21 19 27 31 25 20 16 13 20 22 19 25 30 27 25 22 19 21 22 20 21 21 20 20 22 24 23 22 22 25 27 28 28 28 29 29 28 28 27 27 27 26 24 23 23 23 24 24 24 23 24 25 25 24 24 25 27 28 30 30 31 34 35 34 34 34 35 34 34 35 35 33 33 34 36 37 32 28 28 29 27 24 23 23 22 21 20 18 17 16 15
Wind_Direction
72 70 66 65 65 68 73 73 70 72 85 79 75 86 83 89 103 105 106 99 107 113 115 124 119 109 107 117 121 127 136 136 127 122 132 137 143 144 142 137 132 130 131 133 132 134 132 127 127 127 130 131 126 125 127 125 123 121 121 125 129 132 136 138 139 141 139 137 138 141 145 148 150 152 151 150 151 152 148 142 129 116 104 91 78 71 74 73 64 53 48 42 39 39 38 33 29
74 72 69 68 67 68 73 68 62 79 88 80 72 84 94 98 103 106 108 107 120 115 115 117 108 106 107 111 115 120 134 139 135 135 134 133 136 138 138 136 133 129 128 131 133 134 134 130 128 129 134 137 131 127 129 127 123 123 126 129 131 132 133 136 140 142 140 137 138 141 145 148 151 153 155 159 162 163 159 151 142 134 124 108 91 84 83 76 60 49 42 36 32 32 32 27 23
74 69 69 69 67 68 64 49 43 73 78 78 78 82 96 102 106 113 114 119 118 106 107 107 109 110 106 114 120 124 137 134 132 134 130 126 132 135 135 134 131 129 127 128 132 132 132 132 127 127 134 137 135 131 130 128 125 126 130 131 130 131 131 134 135 136 137 138 140 143 145 147 151 154 160 165 169 169 166 161 157 152 137 116 99 90 82 67 51 42 35 29 26 24 23 21 16
72 67 66 68 67 64 55 44 41 64 74 78 85 83 95 110 117 124 123 119 111 102 104 102 108 113 115 128 123 119 131 131 133 133 127 127 134 134 132 131 130 128 126 128 131 128 128 131 128 128 132 135 136 134 131 130 131 130 131 133 130 131 132 130 129 130 135 140 143 145 146 149 152 157 164 166 170 170 168 167 162 152 136 116 98 84 69 53 43 35 28 24 19 17 15 14 10
67 65 65 63 67 64 60 68 54 60 69 66 85 93 101 119 125 126 122 116 111 109 110 104 102 108 116 131 131 131 134 133 137 136 131 134 136 134 132 131 131 128 126 128 129 127 129 131 129 131 133 134 135 133 130 131 133 132 134 135 131 133 133 129 129 132 136 140 143 146 149 152 156 160 164 166 169 171 171 168 161 148 132 109 87 67 52 41 35 28 22 19 13 10 6 7 3
63 66 68 64 64 62 60 70 61 65 67 56 84 102 111 127 131 126 120 116 115 118 119 112 107 103 110 134 140 137 134 135 140 140 136 138 137 136 134 133 133 129 126 128 130 129 132 133 131 132 135 135 133 132 132 133 135 134 136 134 131 132 129 129 133 136 139 141 143 146 149 152 156 160 164 168 171 171 172 166 158 143 119 91 67 44 34 26 23 21 15 13 9 5 2 3 357
58 63 67 66 59 56 59 65 61 65 65 58 82 103 119 132 137 130 120 115 114 117 120 120 113 107 119 135 139 134 131 136 141 141 139 138 138 137 134 133 132 128 125 127 130 131 132 135 133 132 134 133 132 134 134 135 136 133 132 129 126 125 125 130 135 138 141 144 146 147 149 152 156 161 166 169 170 168 166 160 148 124 90 65 46 24 18 10 9 10 7 9 7 7 6 5 359
51 57 60 65 59 54 63 67 63 63 65 68 84 105 121 133 138 135 127 118 116 115 117 123 111 111 134 136 139 137 133 138 141 141 141 140 140 139 135 133 132 129 127 127 128 129 131 132 131 132 131 129 129 130 131 131 130 129 127 123 121 121 124 130 134 137 140 142 144 148 151 155 159 163 167 166 166 160 154 144 120 84 58 38 19 9 3 358 0 2 3 5 7 10 12 14 10
41 53 55 55 58 68 70 71 71 69 70 74 83 98 108 125 139 143 141 136 128 116 120 129 114 123 146 141 143 142 138 141 142 142 143 142 142 140 136 133 133 131 129 127 126 126 129 130 130 130 127 125 126 125 127 126 125 126 124 122 122 124 126 129 132 134 135 138 141 146 151 154 158 160 162 162 159 153 145 135 114 84 52 18 1 357 352 353 355 360 3 6 10 8 8 18 22
41 53 53 43 54 71 70 72 75 73 77 82 83 93 95 111 136 147 149 145 134 118 127 134 129 149 156 146 146 146 144 144 143 144 145 144 142 141 137 133 132 132 130 128 126 127 128 129 130 129 126 125 125 125 126 126 126 126 125 126 126 126 128 129 131 133 134 137 141 146 149 151 153 153 154 155 153 150 145 144 139 129 78 3 355 348 346 351 354 1 7 10 11 5 4 14 25
52 52 47 40 57 65 64 70 77 80 83 85 84 94 98 101 122 144 152 148 134 120 126 131 140 157 159 150 149 151 148 148 148 147 146 145 144 142 140 137 136 134 133 131 129 128 128 129 129 128 127 126 126 128 129 128 128 127 126 127 127 129 131 133 134 136 138 141 145 147 148 147 147 147 148 150 153 157 155 156 151 131 352 347 342 340 345 352 355 3 10 10 5 2 5 6 13
61 40 25 27 55 62 62 71 80 85 86 86 85 92 104 106 109 134 149 149 136 120 122 136 154 160 162 159 153 153 151 153 153 150 148 147 146 145 143 142 141 137 135 135 134 130 128 131 131 129 128 128 129 130 130 128 127 127 128 129 131 133 134 137 138 139 142 144 146 146 145 143 143 145 148 153 157 161 159 153 144 23 347 339 335 339 351 356 355 1 4 2 356 356 0 359 4
73 46 9 14 40 64 65 70 81 84 86 98 95 92 101 109 115 132 143 148 143 135 134 146 159 162 169 168 158 156 156 156 157 155 152 150 150 149 148 147 146 143 141 140 137 132 130 131 132 131 129 130 130 129 129 129 129 130 131 133 134 136 136 137 137 139 141 142 143 143 143 144 146 150 153 157 157 159 159 152 137 14 344 336 342 354 2 2 359 0 358 352 350 349 352 357 2
78 40 3 0 10 71 74 71 83 78 85 110 101 93 99 109 121 130 132 145 153 154 151 150 155 163 174 172 165 163 161 160 161 160 156 154 154 152 152 152 151 150 148 143 140 136 133 133 133 132 132 130 130 131 132 132 133 133 133 134 135 136 135 135 135 137 139 140 142 143 145 148 151 155 156 156 157 162 169 157 117 32 14 10 13 16 10 6 3 1 359 352 350 346 344 354 5
288 340 347 343 16 78 91 73 82 75 89 117 85 83 102 113 122 124 132 156 167 150 147 150 152 162 185 182 174 171 167 163 164 163 161 159 157 157 157 155 155 154 150 144 143 143 139 138 137 135 135 132 134 136 136 135 134 133 134 135 135 135 133 133 135 138 141 143 146 148 149 151 152 153 153 153 158 159 148 139 114 69 54 35 27 23 14 6 1 357 356 355 354 350 342 352 6
265 341 332 316 27 59 107 85 82 75 98 121 66 64 98 115 127 128 140 153 149 138 143 151 151 151 183 193 186 177 171 167 165 164 165 164 162 163 163 160 158 155 152 148 146 148 145 144 141 140 141 137 138 139 137 137 136 137 137 135 134 133 132 132 135 141 146 149 150 150 152 151 150 150 158 164 156 149 141 137 117 79 44 34 27 19 12 5 1 353 350 352 355 352 342 347 354
268 289 280 289 32 52 98 106 77 64 103 124 57 59 84 98 128 134 141 142 138 145 150 154 154 146 167 190 191 182 175 171 168 166 166 166 166 167 166 164 161 158 155 152 151 151 150 148 143 141 142 139 140 141 140 141 141 142 140 138 137 136 139 140 143 146 149 154 150 143 145 152 155 158 165 163 155 162 180 198 135 27 11 21 19 9 3 360 356 351 349 350 350 344 334 330 333
256 262 257 278 45 53 69 113 75 61 108 130 41 53 78 85 118 130 137 144 148 158 166 163 158 156 168 180 185 188 180 175 172 168 168 166 166 169 169 166 162 162 159 157 155 153 152 150 145 142 141 141 142 143 145 146 146 147 147 148 149 151 156 156 156 152 149 153 153 148 149 157 164 167 163 161 170 196 228 236 263 312 338 349 349 346 347 349 349 348 346 345 342 334 324 317 319
239 238 251 267 347 23 29 126 98 75 119 113 26 47 92 115 114 117 128 147 154 161 177 175 167 169 177 176 178 189 184 177 175 170 170 167 166 167 167 166 164 165 163 160 159 156 155 153 150 148 145 146 147 148 150 152 153 155 157 162 164 167 169 168 166 159 152 152 160 161 158 164 168 173 176 180 203 236 256 267 283 295 305 312 319 326 332 338 342 343 340 336 333 326 318 313 313
243 239 247 253 258 308 323 255 243 174 163 227 12 36 118 137 122 121 126 142 152 159 173 172 172 174 178 177 175 185 185 179 176 171 171 169 167 166 166 166 166 165 163 162 162 160 158 158 156 154 152 151 152 154 156 160 162 162 166 171 174 175 176 177 176 171 163 160 166 167 164 170 177 185 197 206 231 261 276 288 295 297 300 304 308 315 322 330 336 339 336 330 326 320 314 312 312
240 239 242 242 251 284 294 280 245 238 203 217 312 3 144 153 132 127 124 132 143 154 162 159 166 170 173 175 171 178 183 179 176 170 167 167 164 165 168 168 166 166 165 165 165 164 162 160 160 159 158 157 157 159 161 166 168 169 171 174 179 179 182 184 184 183 176 171 172 175 177 182 190 197 212 228 251 272 284 291 295 299 303 306 308 313 319 327 333 333 330 325 320 315 313 312 311
240 241 240 242 254 269 273 260 252 261 237 234 301 349 180 158 141 133 122 125 156 167 166 161 155 157 167 172 168 171 178 176 173 167 162 163 163 164 167 167 166 167 168 168 167 168 168 164 164 164 162 161 162 164 166 170 171 173 173 176 182 181 184 188 189 191 188 185 184 188 193 199 213 219 228 246 261 271 279 285 291 298 304 308 312 316 319 325 328 325 322 319 317 314 312 311 310
250 247 242 243 249 253 259 256 260 279 271 259 291 269 211 165 146 145 134 139 167 166 162 161 152 150 159 168 166 163 168 170 168 164 161 160 161 164 166 167 169 169 168 168 168 171 173 170 168 168 167 166 166 169 171 172 173 176 177 179 184 184 185 189 191 196 195 193 197 204 209 217 228 234 241 254 264 270 277 284 290 296 302 307 313 317 318 320 319 317 317 319 320 317 314 312 312
255 248 244 245 245 245 252 256 264 284 280 253 255 247 236 180 164 165 151 155 160 152 155 160 155 154 157 162 162 159 160 164 165 163 162 162 163 166 168 169 169 171 170 170 171 171 174 172 171 172 172 170 169 172 174 177 178 179 182 183 185 187 186 190 195 199 198 200 211 219 222 231 236 240 249 258 266 273 280 287 291 295 300 306 312 314 314 315 313 314 319 322 322 319 315 315 317
257 247 246 248 245 246 254 257 265 278 266 232 236 241 237 190 189 197 167 164 160 151 156 158 158 159 157 157 160 162 161 163 166 167 167 167 168 170 170 170 171 172 171 172 173 172 174 175 175 176 175 175 174 177 180 181 183 184 188 190 189 192 193 197 202 204 208 215 224 227 228 235 241 247 255 262 268 276 284 292 294 295 298 302 308 307 308 312 311 312 316 317 318 317 315 314 314
258 250 246 250 250 251 260 262 264 268 240 225 234 231 230 216 199 204 195 184 170 160 159 157 159 160 160 162 164 165 167 168 169 170 171 172 172 172 172 173 174 175 175 175 176 176 179 179 179 181 179 180 180 182 184 183 187 189 193 197 197 201 204 207 211 215 222 228 231 232 235 240 246 251 258 265 272 280 289 295 294 293 294 298 304 303 305 311 311 312 313 314 316 315 313 311 309
248 248 246 249 251 255 266 267 259 244 216 221 226 217 227 232 210 203 215 209 188 171 164 163 163 164 165 167 169 170 172 173 174 175 177 177 176 174 175 177 177 179 180 179 178 181 184 184 184 186 185 185 185 186 187 187 191 195 201 206 207 211 214 214 218 224 229 233 235 236 238 242 246 252 260 269 278 284 289 291 290 292 292 294 297 299 306 311 309 308 310 314 315 314 313 310 306
243 249 255 257 255 264 275 267 238 205 207 215 208 209 226 238 220 204 226 224 207 190 171 168 172 175 176 174 174 175 177 178 181 184 183 181 179 179 179 179 181 183 183 183 184 185 186 188 190 191 192 191 190 192 193 193 197 203 209 212 215 219 219 219 224 230 233 236 237 239 241 244 247 254 263 273 283 287 289 290 289 289 289 293 297 301 305 306 304 304 309 313 313 312 311 306 302
245 247 254 261 262 271 272 241 196 190 205 204 196 207 229 243 232 212 228 226 211 205 183 177 180 186 191 187 183 180 180 182 186 187 185 183 182 183 183 182 185 185 185 189 190 188 188 190 193 195 195 195 195 198 199 201 204 210 214 216 221 224 222 224 228 233 236 238 240 242 244 247 251 259 269 279 286 288 290 291 292 288 286 293 302 304 303 302 303 305 309 311 310 308 306 304 303
241 244 244 253 257 262 248 203 183 193 205 206 200 204 227 239 234 226 230 223 213 208 199 191 186 192 201 203 200 192 188 189 190 185 182 184 183 182 185 188 189 187 190 194 193 192 193 193 194 195 195 196 198 201 203 204 208 214 217 220 224 226 226 227 231 234 236 240 243 245 247 251 257 265 272 277 281 285 289 291 291 290 291 295 298 300 301 302 306 307 307 306 304 304 306 307 307
233 237 236 238 238 237 230 207 190 198 209 215 210 209 217 217 224 229 226 221 221 211 206 206 201 199 203 208 213 210 205 201 196 187 185 187 186 184 189 193 192 193 197 196 195 197 199 198 196 195 194 196 199 201 204 207 211 215 218 223 225 226 227 228 232 236 239 242 243 248 254 259 262 266 270 273 278 284 288 290 288 288 293 296 296 297 299 301 306 306 302 301 301 303 305 306 305
222 226 226 225 226 222 226 218 198 200 216 218 212 216 216 196 216 225 218 224 232 225 215 212 211 211 210 211 215 219 218 213 208 197 192 193 193 193 197 200 198 200 203 200 199 203 205 204 200 198 198 199 201 203 206 209 213 217 219 224 225 226 226 229 232 234 240 244 247 254 259 263 266 269 271 274 280 285 287 289 288 288 290 292 294 296 299 301 302 300 298 300 302 302 303 304 302
214 222 225 217 216 211 221 226 206 204 222 219 211 215 208 199 220 225 222 229 234 234 231 221 215 216 217 217 216 221 222 219 220 214 205 204 204 203 205 209 207 207 208 206 206 209 209 208 205 203 203 204 206 207 210 213 216 219 221 225 227 227 227 229 232 234 239 245 251 256 259 263 267 270 269 273 283 287 286 288 288 287 287 290 292 294 297 297 295 295 297 299 298 299 300 301 299
210 218 227 223 220 214 211 222 212 209 225 225 217 219 206 200 228 237 237 237 236 237 240 233 223 218 218 220 219 221 223 223 225 226 222 218 217 215 213 216 216 213 213 212 212 213 213 213 210 208 207 210 213 214 215 217 220 221 223 227 229 229 228 229 233 237 241 247 252 256 259 264 267 267 268 276 286 287 286 286 287 287 287 289 290 291 292 291 291 294 295 295 294 296 299 299 297
210 212 221 224 227 224 213 214 216 217 225 224 218 221 218 216 241 251 248 245 241 237 241 242 234 225 218 219 222 223 224 224 227 230 229 226 226 224 221 221 221 219 218 217 217 216 216 217 215 213 212 214 218 219 221 222 223 225 226 229 232 231 229 231 235 241 245 249 252 255 259 264 267 269 272 280 287 289 289 286 282 282 284 285 286 288 289 289 290 291 289 288 289 292 296 297 297
216 215 220 224 226 226 220 216 223 226 226 222 219 222 223 223 243 258 253 248 249 238 236 241 240 233 223 219 222 224 226 226 228 231 231 229 230 229 227 226 225 224 221 221 221 220 221 221 219 218 218 218 220 222 224 227 228 230 230 232 234 233 232 234 238 243 248 251 253 255 260 263 265 267 270 276 285 291 288 283 279 279 282 284 285 287 288 287 287 287 284 283 285 288 291 292 293
220 220 224 230 232 228 217 212 225 230 224 222 224 227 230 226 234 255 255 246 246 240 234 238 240 239 232 224 223 225 227 230 231 231 231 229 229 230 230 230 229 228 226 225 227 227 227 225 222 222 222 223 225 226 227 229 230 231 231 229 230 233 237 239 240 243 247 251 253 255 260 264 265 266 268 274 285 288 282 279 281 283 284 284 285 286 285 283 283 284 283 282 284 285 285 287 289
221 223 228 231 235 232 212 207 221 224 222 226 228 231 236 234 231 246 255 251 247 244 240 244 246 247 247 237 230 228 226 229 232 231 229 227 227 230 230 230 231 230 231 231 232 232 230 226 224 223 224 226 228 230 229 227 226 225 224 222 221 227 236 237 237 239 243 249 253 256 262 267 267 266 265 268 277 281 280 282 285 285 285 285 285 284 282 280 280 280 282 283 284 282 281 283 284
222 226 231 232 231 227 209 211 220 218 222 229 231 236 241 240 237 246 258 260 255 251 248 250 252 251 250 243 235 230 226 228 232 233 231 229 228 231 232 231 232 232 233 233 233 234 231 227 225 225 226 227 226 228 226 225 224 222 219 217 216 223 230 232 234 236 239 245 251 253 256 261 264 262 260 263 269 273 277 282 285 285 285 285 283 281 280 281 281 281 282 282 281 279 278 279 281
223 225 229 232 228 219 210 215 220 220 227 232 236 243 247 247 245 246 257 264 261 257 254 252 253 251 247 242 234 229 228 229 232 234 234 232 230 232 234 235 235 236 235 235 234 233 231 228 228 229 229 228 226 226 224 224 224 221 219 217 217 220 225 231 234 235 237 240 245 247 248 250 249 249 247 249 258 264 275 285 291 291 290 289 285 282 282 282 283 283 281 279 278 279 281 283 284
221 223 226 231 229 221 218 217 218 224 230 232 235 247 252 251 247 244 254 265 264 259 257 254 252 252 247 238 227 222 225 227 228 232 233 233 233 233 236 237 237 238 238 237 235 233 232 230 229 229 228 227 226 225 223 223 223 221 219 217 217 218 223 230 232 233 235 233 236 236 229 216 194 176 160 146 126 82 26 357 340 326 314 306 298 292 291 289 289 289 286 285 285 286 288 290 290
220 222 223 229 231 226 225 218 211 219 230 231 228 243 256 249 244 243 245 256 264 263 261 258 255 253 249 239 230 224 224 225 224 227 230 232 234 234 235 236 236 237 237 235 234 232 232 231 229 228 226 225 224 222 221 221 220 217 214 211 213 217 219 221 221 222 223 215 208 194 175 163 153 142 132 117 90 68 49 31 17 1 344 329 317 309 305 301 298 297 295 295 294 294 296 297 296
221 221 221 224 230 229 223 213 209 219 233 233 223 230 255 251 240 240 236 243 263 272 266 262 260 256 252 244 239 236 233 231 227 226 228 230 230 230 231 234 235 236 235 231 230 229 230 230 229 229 226 223 221 221 220 218 215 210 206 204 207 210 208 208 208 206 199 187 176 167 161 154 147 136 121 101 75 58 44 32 24 14 2 348 337 326 318 311 305 302 301 302 302 302 302 303 302
222 223 218 217 222 225 222 217 219 228 234 230 219 226 251 255 239 237 236 235 255 272 269 265 264 259 256 250 245 243 239 237 235 231 230 229 227 226 226 229 232 234 232 228 227 227 228 229 230 229 226 222 220 220 218 214 208 202 200 200 202 202 199 199 198 191 182 174 169 166 162 155 144 128 104 80 59 45 35 28 23 18 10 359 349 338 328 320 314 312 311 312 311 310 308 307 306
221 224 216 212 217 223 224 224 227 232 233 229 221 225 246 256 244 241 242 233 245 268 270 264 263 263 263 258 251 248 244 240 238 236 233 231 229 226 224 224 226 228 227 226 226 225 226 228 228 228 226 221 218 217 213 208 202 197 197 198 196 194 195 195 190 185 181 176 173 171 168 161 150 131 99 63 45 32 25 23 20 15 11 5 357 348 338 329 323 320 320 317 315 314 313 311 311
218 221 211 208 216 223 225 228 232 233 232 232 227 218 231 254 246 236 238 238 245 262 268 267 267 268 269 267 261 255 248 242 239 237 235 232 230 227 223 221 221 222 223 224 223 223 224 225 225 225 223 219 216 213 208 202 197 195 196 195 193 193 195 193 189 188 187 183 182 182 180 176 171 160 134 37 22 15 11 10 8 7 6 5 2 354 346 338 331 328 324 320 319 320 319 316 312
214 216 206 208 215 220 225 229 235 238 231 234 236 223 222 250 250 232 230 244 251 254 260 270 276 275 271 269 268 261 253 248 242 238 235 232 229 225 221 220 217 217 219 220 220 220 220 221 222 222 221 217 214 210 205 201 197 196 196 194 195 196 196 195 195 196 195 192 191 192 193 192 192 198 222 286 344 358 356 351 353 357 359 1 1 355 348 342 338 336 331 329 329 325 319 315 311
214 216 209 209 207 209 220 222 228 240 231 231 238 229 221 238 248 237 232 245 250 248 251 262 273 279 279 272 269 266 259 253 246 240 235 232 228 223 221 219 216 214 216 217 217 217 217 218 219 219 218 215 211 207 204 201 199 198 196 195 198 198 199 200 202 202 201 199 198 201 204 206 212 222 241 270 311 333 336 337 341 346 350 354 354 349 344 339 338 339 336 336 335 327 319 315 312
213 215 210 207 199 198 213 216 217 230 232 234 236 229 224 233 245 244 239 238 240 251 262 262 263 274 281 275 266 265 259 253 248 243 238 234 231 229 228 225 220 216 217 216 216 217 216 216 216 215 215 214 210 206 204 203 201 199 198 198 200 202 203 204 204 205 204 205 207 212 217 223 229 235 247 266 291 309 321 331 335 336 340 343 344 342 338 335 335 334 332 333 331 323 317 314 312
208 209 206 207 207 204 212 215 218 227 230 232 231 226 229 236 245 247 246 245 248 259 269 268 262 263 270 267 252 250 246 239 242 241 240 238 235 234 233 230 228 224 222 220 218 218 217 217 216 214 214 213 211 207 206 205 204 202 201 203 204 206 207 206 207 208 208 211 215 220 226 230 234 241 252 266 282 297 309 320 326 328 329 332 334 335 332 329 330 327 323 325 322 315 310 308 308
208 209 209 214 215 216 217 213 220 226 228 227 219 217 232 238 244 247 245 248 254 260 265 271 272 268 266 258 242 239 236 229 232 234 237 239 238 237 235 232 231 230 227 225 224 222 221 220 219 216 215 214 213 211 211 210 209 208 207 208 209 211 211 210 211 213 214 217 220 224 228 230 233 242 253 264 275 286 296 305 314 319 320 322 325 326 326 323 320 316 314 313 309 304 302 302 302
211 210 215 220 218 221 230 229 230 231 230 226 213 214 234 241 244 243 245 253 257 259 263 268 274 270 260 247 236 233 230 229 231 230 231 234 236 236 235 234 233 230 227 226 227 226 224 223 222 220 217 216 216 216 217 218 216 214 214 215 216 216 216 215 217 220 222 223 225 227 230 232 237 246 253 263 271 277 284 293 303 311 314 314 315 317 316 312 308 305 305 303 300 297 296 297 298
207 209 216 221 220 224 231 234 235 232 234 230 217 218 234 239 244 246 249 258 257 257 260 262 273 272 253 239 236 233 228 226 229 231 229 229 231 232 232 234 234 231 228 229 229 228 226 224 223 222 220 218 219 219 221 222 222 221 221 222 222 222 222 223 224 227 227 228 231 234 237 241 247 253 257 262 267 272 277 285 294 302 305 306 308 309 309 305 302 300 298 297 295 294 293 292 292
206 210 215 216 221 229 232 231 224 221 232 235 227 228 229 231 240 245 245 249 247 247 251 254 268 273 255 236 234 234 231 230 230 231 229 226 228 229 228 231 233 232 232 232 232 229 227 226 224 224 223 222 222 222 222 224 225 226 226 227 228 228 229 229 231 232 232 234 239 242 246 250 253 255 258 261 265 269 272 276 284 291 294 299 303 304 305 301 296 297 298 295 293 294 295 295 294
215 217 214 210 214 221 223 225 226 225 230 236 235 236 233 230 233 230 226 231 232 234 241 243 254 267 264 246 239 240 240 239 236 232 227 223 224 226 225 228 230 231 231 232 231 228 226 226 226 226 225 225 224 224 224 225 226 227 229 230 232 233 234 235 236 237 237 240 245 248 251 251 252 253 254 258 263 265 267 273 279 279 281 294 299 296 294 290 289 301 303 295 291 294 294 294 296
216 222 221 217 220 220 217 221 229 232 234 236 238 238 231 229 230 226 220 219 220 230 242 246 251 264 270 258 246 245 245 245 245 242 233 224 225 227 227 227 228 229 229 229 228 226 225 225 225 225 225 226 225 225 226 226 227 229 231 232 234 236 238 239 241 242 242 245 249 251 251 251 254 256 257 260 263 261 264 272 275 271 278 292 295 290 286 284 290 305 305 294 288 289 289 288 292
206 214 217 215 216 220 224 226 226 230 238 238 238 241 234 229 228 228 226 227 233 243 250 252 254 260 267 265 257 252 250 249 251 251 240 226 224 227 228 228 228 228 227 227 227 227 227 226 226 224 224 225 226 227 229 229 230 232 233 235 236 239 241 243 245 246 246 247 249 252 254 256 258 259 259 262 261 261 266 273 277 279 288 299 298 290 285 285 290 294 294 289 284 285 285 283 286
205 209 214 215 213 215 222 227 223 226 234 235 237 246 239 231 226 226 228 232 237 242 248 254 256 256 259 263 260 255 253 253 253 251 238 225 222 225 227 228 227 227 226 224 224 226 226 226 226 224 224 225 225 227 228 229 232 234 236 238 239 241 243 246 247 249 250 250 250 253 255 257 257 257 259 261 262 267 272 275 278 283 291 299 300 294 285 282 287 288 288 285 280 281 283 280 283